Wind_Gust
10 12 8 12 13 14 16 19 21 22 23 25 24 17 22 13 13 18 15 13 18 10 13 10 13 19 18 15 12 13 16 18 18 16 15 15 19 25 20 25 28 29 28 28 30 30 28 23 22 23 25 25 25 25 26 26 25 25 24 23 23 22 22 22 22 21 21 21 21 21 21 20 19 19 18 18 20 21 21 22 23 23 21 22 21 23 25 22 25 24 24 25 26 26 25 24 24
9 8 10 12 15 18 22 16 27 19 18 22 23 16 12 13 13 16 18 12 11 11 11 14 14 16 13 13 14 15 19 17 18 18 17 16 23 23 21 27 28 29 26 27 29 28 28 28 21 23 24 26 26 25 25 27 25 24 23 23 23 23 22 22 21 21 21 21 20 20 21 20 20 19 18 18 19 20 21 22 21 22 22 23 23 21 23 23 24 23 24 25 25 25 25 23 22
9 13 15 15 15 21 14 21 29 22 21 23 20 21 13 19 18 14 12 10 11 14 11 14 12 11 10 13 12 16 17 14 17 17 20 22 23 22 24 26 26 27 27 27 27 26 26 26 21 22 24 25 25 25 26 25 25 25 24 24 23 23 23 21 21 21 20 19 19 20 20 20 20 19 18 18 18 17 18 19 20 21 22 21 20 20 21 21 21 22 23 23 23 23 23 23 22
10 11 15 17 22 20 24 25 25 22 23 22 16 15 17 15 16 12 12 11 15 14 15 17 14 10 14 13 18 16 16 13 15 15 23 23 16 25 26 25 25 26 27 26 26 26 25 25 23 22 24 25 25 25 25 26 26 25 24 24 24 24 23 22 21 21 21 20 19 20 20 20 20 19 19 18 17 17 16 17 18 19 19 18 19 19 19 20 20 21 22 22 22 22 21 21 20
13 13 14 20 19 25 28 26 23 22 25 20 15 15 12 15 11 11 11 11 16 17 18 15 15 12 15 16 12 14 17 13 16 13 22 18 20 24 25 25 24 24 26 25 26 26 27 25 23 21 22 24 25 25 25 26 26 24 25 24 25 23 22 21 21 20 20 21 20 20 20 19 19 19 19 19 17 16 16 16 16 17 18 18 18 18 18 19 19 19 20 21 22 22 21 20 20
13 15 13 18 25 23 24 22 22 23 22 15 14 13 14 11 12 12 12 13 17 17 14 18 17 14 13 14 18 17 15 12 13 14 19 17 22 24 24 22 23 24 24 24 25 24 29 24 22 23 22 24 24 25 25 25 25 26 24 23 23 22 21 20 20 20 19 20 20 20 19 19 19 19 19 18 17 17 16 15 15 15 17 17 18 17 18 18 18 18 19 20 22 22 22 21 22
19 18 21 20 17 20 26 23 22 20 17 14 18 12 13 15 13 12 12 14 16 17 14 16 12 19 16 19 21 22 17 13 11 15 14 21 24 25 23 23 24 22 22 24 24 27 30 25 23 22 23 24 25 26 25 25 25 25 24 22 21 21 21 21 20 20 19 19 20 19 18 18 18 18 18 18 18 18 18 17 16 15 15 17 18 18 18 18 17 18 19 20 22 22 22 20 20
13 22 23 24 24 24 25 20 21 15 16 16 14 16 14 14 13 15 11 17 21 24 19 12 13 13 14 11 13 15 18 17 16 16 22 23 23 23 26 24 23 22 22 22 24 27 26 25 23 22 22 23 24 25 25 26 26 25 24 22 21 21 20 20 20 19 20 19 20 19 18 18 18 18 18 18 18 18 17 17 17 16 17 18 19 18 17 18 17 18 19 20 20 21 21 21 20
19 21 12 22 24 23 23 20 20 13 14 13 16 16 14 15 15 15 15 17 16 18 17 17 16 19 16 14 18 15 17 15 17 18 20 23 23 22 25 24 23 23 22 23 26 27 28 23 23 23 22 23 24 24 24 25 26 25 23 22 21 21 21 20 20 20 19 19 19 19 18 18 17 17 17 17 17 17 16 17 17 19 20 21 20 19 18 17 17 17 19 20 21 22 22 21 21
19 22 22 27 20 22 21 21 19 17 19 15 15 16 16 15 16 15 17 19 19 17 20 14 14 17 18 17 21 14 15 13 16 18 19 22 22 20 22 24 23 24 22 23 26 27 26 24 23 21 20 20 20 20 21 23 23 24 22 21 21 21 20 20 20 20 19 19 18 18 18 18 17 17 18 17 17 17 16 16 17 20 20 19 18 17 16 16 16 18 20 21 21 21 21 21 20
23 25 17 26 21 21 21 18 19 14 15 13 15 17 17 16 16 18 18 19 18 25 22 16 21 17 20 17 20 12 11 12 17 19 19 21 21 20 19 23 23 22 23 22 21 26 28 27 24 19 17 17 18 18 18 19 21 21 21 21 20 21 20 20 20 19 19 19 18 18 18 18 17 18 18 18 17 17 17 17 17 17 17 17 16 16 15 15 17 18 19 21 21 20 20 20 20
23 23 21 24 22 20 17 18 15 14 14 13 16 13 12 15 16 20 19 18 18 14 20 17 22 17 19 16 16 17 13 13 15 18 19 20 22 19 21 21 21 23 21 21 20 22 26 28 27 22 17 18 17 16 16 17 20 19 20 20 20 19 20 20 19 18 19 19 18 19 18 18 17 17 18 18 17 17 15 16 16 17 17 16 16 15 15 16 17 19 20 21 20 19 19 19 19
23 21 22 23 18 18 12 13 14 11 14 19 15 14 10 13 20 18 17 18 18 18 17 14 22 20 15 13 21 18 16 14 17 19 22 19 20 20 21 23 21 20 20 19 19 22 24 24 27 26 22 20 18 18 17 18 19 19 19 20 19 19 18 19 18 17 17 18 17 18 18 18 17 17 18 17 17 16 15 15 15 16 17 17 16 15 15 16 18 19 21 21 20 19 19 18 18
23 20 18 21 12 15 17 16 14 18 19 15 11 12 13 16 17 18 19 19 18 19 18 23 20 21 16 15 20 19 19 15 19 20 23 19 18 19 20 24 21 19 19 17 21 21 21 23 24 25 26 23 22 19 18 19 18 18 19 19 18 18 18 19 19 18 17 17 17 18 18 18 17 17 17 17 17 16 15 15 16 16 16 16 15 16 17 18 19 20 20 19 18 18 17 17 17
20 15 19 18 17 17 14 18 18 17 15 13 13 12 13 15 9 17 20 22 19 16 18 15 13 19 17 17 15 18 21 18 19 21 22 20 19 22 20 21 22 19 19 18 19 21 21 22 25 25 21 25 24 20 19 23 19 18 19 19 17 18 18 19 19 18 17 17 17 17 18 17 17 18 17 17 16 16 16 15 16 16 16 16 17 19 19 21 21 20 20 18 17 16 16 16 16
15 20 19 17 19 20 22 15 11 14 17 13 14 9 14 13 14 19 18 14 23 16 15 21 13 16 13 17 18 24 24 21 19 21 22 21 21 21 23 23 20 19 18 17 18 20 21 21 22 22 22 24 22 21 22 21 21 19 18 18 18 18 18 19 20 18 18 17 17 17 18 20 18 19 17 19 17 15 15 17 17 17 17 17 19 20 21 22 22 21 19 17 16 16 16 16 16
12 20 19 19 18 19 20 16 17 16 16 13 11 12 15 16 11 14 12 13 23 18 18 13 15 13 23 25 24 27 24 22 20 21 21 20 20 25 22 21 22 21 19 19 18 19 19 21 22 22 20 22 22 22 22 22 24 22 20 19 18 18 18 18 18 19 17 17 17 17 16 16 17 18 18 19 15 19 16 17 17 17 18 19 19 20 21 21 21 20 19 17 17 16 15 16 15
18 22 20 19 16 18 18 10 12 13 14 14 13 10 13 17 17 17 19 19 18 19 18 17 19 22 24 25 23 24 24 24 22 21 19 19 17 20 21 20 21 21 21 21 19 18 20 20 21 22 21 21 23 23 23 22 24 21 23 23 22 22 18 17 20 20 16 20 15 18 15 15 15 15 17 13 18 21 20 18 19 19 19 18 19 20 21 21 21 20 19 17 15 15 17 19 16
22 19 19 19 17 16 11 12 11 14 15 15 12 10 12 14 17 23 26 25 23 23 20 20 22 21 23 24 23 22 23 20 19 19 19 18 17 19 19 20 18 19 19 19 19 18 17 18 19 21 20 20 20 18 21 21 23 22 22 22 22 16 20 21 19 19 19 19 18 17 15 15 15 14 14 14 17 14 22 18 19 19 18 18 19 20 20 21 20 19 19 16 14 15 18 14 15
14 16 20 14 14 17 9 10 13 14 15 14 11 10 11 16 12 19 21 25 23 23 24 21 21 23 23 24 21 21 21 20 20 18 18 18 15 16 16 16 17 17 17 18 19 17 18 18 19 19 20 20 19 18 17 18 18 19 20 20 20 19 20 18 17 16 17 17 17 15 15 15 14 16 15 17 17 22 23 18 19 19 19 18 20 17 18 19 19 19 18 15 12 10 13 13 13
18 20 19 15 15 14 13 10 12 15 14 14 10 9 14 12 12 17 20 25 25 22 15 17 22 22 26 24 21 20 21 21 21 20 19 18 16 14 15 13 15 16 17 16 17 18 17 17 18 18 18 19 19 19 17 18 17 17 18 18 19 18 17 17 16 16 15 16 16 15 16 14 15 16 15 16 16 20 21 22 22 22 21 20 15 18 18 21 17 19 18 18 12 13 13 13 13
15 19 12 12 14 13 13 11 11 16 11 12 10 11 15 13 17 15 19 21 21 20 18 19 23 25 27 25 20 20 22 22 21 20 18 17 16 15 14 12 12 13 15 16 17 17 17 17 17 18 18 17 18 17 18 18 17 17 16 17 17 17 17 16 16 15 15 15 16 16 15 15 14 15 14 14 14 17 19 21 20 19 19 18 16 15 15 14 14 15 14 14 13 14 13 12 13
19 15 12 11 10 13 12 8 11 15 16 14 11 13 12 12 18 17 17 20 17 14 17 21 25 25 24 23 21 21 22 21 20 19 18 17 16 14 15 12 15 14 14 14 14 15 16 16 17 18 18 18 18 17 17 18 17 17 16 16 17 16 15 16 16 16 15 14 15 15 16 15 14 13 14 13 13 14 16 17 18 18 17 17 15 14 14 13 13 13 13 13 14 14 14 14 13
19 15 16 14 12 15 12 12 11 14 15 15 12 9 13 15 15 14 20 17 18 18 19 23 27 26 24 23 21 22 22 22 20 18 17 16 15 14 14 14 13 11 13 13 14 15 15 16 18 17 17 17 17 17 16 17 17 18 17 15 15 14 15 15 15 15 16 16 14 14 13 15 15 14 14 13 13 13 14 15 16 17 16 16 14 14 14 13 14 12 12 13 14 13 15 13 14
19 14 14 10 11 14 13 12 13 13 13 12 10 12 13 13 17 14 17 16 16 18 21 25 26 25 22 21 22 22 22 21 20 17 15 16 14 14 13 14 14 14 14 15 14 15 15 15 17 19 17 16 16 17 16 17 17 17 16 15 14 14 13 14 14 15 16 16 15 14 13 13 13 14 14 13 13 12 12 14 15 16 15 16 15 13 13 12 13 12 11 12 12 12 12 12 12
17 11 10 11 14 11 11 12 10 10 11 9 13 16 15 17 19 21 15 15 17 19 21 25 26 25 22 21 20 19 19 19 18 16 16 15 15 16 16 16 14 16 16 16 15 15 16 17 18 19 18 18 18 17 17 17 17 17 17 13 16 16 13 13 14 15 16 16 15 14 14 13 13 15 14 14 13 13 12 12 13 14 14 14 14 13 12 11 11 11 10 11 13 11 11 12 10
11 12 13 14 12 11 8 11 11 9 9 9 12 14 14 13 14 19 12 15 18 21 23 24 25 25 22 20 19 19 18 16 16 15 14 13 14 15 17 18 20 19 19 18 17 17 17 17 18 18 18 17 17 18 17 17 17 18 17 16 15 15 15 15 15 14 15 14 15 14 14 13 13 13 14 14 13 13 13 14 14 14 14 15 13 13 12 10 9 9 9 9 10 10 9 11 10
9 11 11 15 15 14 12 9 10 12 13 11 16 12 8 10 11 19 15 14 18 22 24 24 25 24 23 20 19 17 16 15 15 14 15 15 16 15 16 18 16 17 20 20 19 17 17 18 17 18 19 19 18 19 18 18 17 19 17 18 18 17 16 15 14 14 14 15 14 14 13 14 13 13 13 14 14 14 13 14 13 14 15 14 14 13 12 10 9 10 10 10 8 8 8 8 9
9 12 17 16 15 20 16 13 13 12 12 10 11 16 14 13 14 14 14 13 19 20 22 23 24 23 22 20 19 16 15 14 12 13 12 10 10 12 14 13 16 16 14 17 18 17 17 18 18 18 19 19 18 19 20 18 17 18 18 18 18 17 17 16 16 14 14 14 14 14 13 13 13 14 14 14 14 14 13 12 13 13 13 14 13 12 11 10 9 9 9 7 9 9 8 9 10
11 14 17 17 18 21 18 13 13 13 12 9 14 23 21 17 17 15 14 17 20 21 22 24 24 23 21 18 18 17 15 13 13 12 11 10 10 11 12 11 12 12 14 13 14 16 15 15 16 16 18 19 19 18 18 19 17 18 17 19 17 17 16 15 15 14 14 14 15 14 14 13 13 13 14 13 13 14 13 14 14 14 13 12 11 12 12 11 10 9 9 8 9 10 10 10 10
20 15 16 20 22 24 21 18 15 16 10 10 13 23 22 19 14 15 15 16 20 23 23 22 23 21 20 18 17 17 14 14 13 13 12 10 8 9 10 10 10 10 12 13 15 16 14 16 16 15 16 17 18 18 18 17 16 18 18 18 18 18 16 15 15 14 14 14 14 16 15 14 15 13 14 14 14 13 14 15 14 15 14 13 13 13 11 11 11 11 9 10 12 8 9 10 10
14 22 23 15 19 23 20 16 15 18 16 13 15 24 21 23 17 15 15 17 19 22 22 20 19 19 18 17 17 17 16 15 13 13 12 11 9 11 12 12 11 11 12 14 12 12 14 15 16 16 16 17 17 18 16 16 17 18 18 15 17 17 17 18 16 13 15 15 15 17 16 16 15 17 16 14 15 15 15 15 15 14 14 15 14 13 13 12 11 10 9 9 9 14 11 12 10
17 21 16 20 22 18 17 22 14 13 16 17 20 23 18 20 18 17 15 18 19 23 21 19 18 18 17 17 16 16 16 14 13 12 11 11 11 9 10 9 10 11 11 11 11 12 12 14 15 16 18 18 17 16 16 15 15 15 15 15 16 17 18 16 15 14 15 15 15 17 18 18 17 16 17 16 14 15 16 16 15 14 15 16 15 14 14 12 10 12 9 9 9 11 11 11 10
19 17 13 14 20 16 19 22 16 13 17 20 22 26 14 16 20 18 16 17 23 23 22 20 19 17 16 16 15 15 14 14 14 12 11 12 13 12 10 10 9 8 8 8 8 9 11 12 13 14 15 16 16 16 15 15 15 15 15 15 14 17 17 16 14 15 15 15 15 16 16 19 18 18 17 17 16 16 16 16 16 16 17 16 16 15 14 13 11 11 10 9 9 11 8 8 8
16 18 16 17 16 12 14 16 19 16 16 21 19 25 19 18 20 20 18 19 23 22 22 22 20 16 16 15 15 13 14 14 14 11 11 11 13 12 11 10 10 10 10 10 8 7 6 8 10 10 11 11 12 12 13 15 14 14 13 14 14 14 18 16 14 14 14 15 15 16 17 17 20 19 18 18 17 17 17 17 17 17 17 17 17 17 16 14 13 12 11 10 9 11 8 7 8
9 12 15 13 17 23 25 14 13 12 18 25 22 27 22 20 22 21 20 21 23 21 20 20 17 15 15 15 15 14 15 13 11 9 9 10 10 13 13 12 10 9 8 7 7 7 7 7 7 8 8 9 8 10 10 11 14 15 15 14 14 16 15 16 16 16 15 16 16 17 17 17 18 19 19 19 18 18 17 17 18 18 18 18 18 18 16 16 15 13 12 11 9 9 11 10 9
10 11 12 14 15 12 10 10 12 10 18 25 25 25 22 22 23 22 22 25 23 23 23 23 18 17 17 17 16 14 12 12 10 10 10 11 11 11 11 11 9 11 10 10 8 7 8 7 6 8 6 7 8 10 12 13 13 14 15 17 18 17 18 16 17 16 17 16 15 17 16 17 17 18 19 20 20 19 18 18 18 19 19 19 18 18 16 14 14 13 12 10 11 10 10 10 9
13 13 13 18 15 20 14 11 11 12 21 21 18 20 20 21 22 22 23 26 26 27 27 25 21 18 18 17 16 16 14 13 12 12 11 10 12 10 10 10 8 8 8 9 8 8 7 6 6 7 6 7 8 10 11 12 14 15 15 17 16 17 16 18 20 19 18 18 16 14 16 16 17 18 19 20 20 20 20 20 19 19 20 20 18 18 17 16 15 14 12 12 11 11 11 11 9
12 18 15 17 18 11 10 10 11 13 20 22 20 26 22 20 21 21 24 26 25 25 26 24 21 19 19 17 17 15 15 15 13 13 11 13 11 10 10 9 9 9 8 8 8 7 8 8 6 6 7 9 9 9 11 12 12 11 14 15 15 17 16 16 17 15 15 17 15 16 15 16 18 19 19 19 19 20 21 20 19 19 19 20 19 19 18 18 17 16 14 13 13 14 13 11 10
15 19 20 22 12 16 21 15 12 15 24 20 21 25 21 19 19 20 21 24 24 24 23 22 19 20 19 17 16 16 16 16 14 13 13 13 11 11 10 10 9 9 9 8 8 7 7 7 7 8 9 8 10 11 12 12 11 12 15 16 15 16 16 16 17 18 16 18 19 18 17 17 18 19 19 20 20 20 21 20 19 19 20 19 20 19 19 19 17 16 15 15 14 13 16 13 11
12 16 17 17 15 12 20 14 17 19 21 18 19 24 22 22 23 24 22 21 22 23 21 22 21 19 17 14 13 14 15 13 14 14 12 12 12 12 11 11 10 10 9 9 8 8 7 8 8 9 9 10 10 10 12 13 13 14 16 15 15 16 16 17 16 20 20 21 21 20 21 19 19 20 21 23 24 21 20 22 20 20 19 20 20 20 19 19 18 17 16 16 16 14 13 11 12
14 11 13 13 10 13 13 15 15 19 20 21 21 29 30 24 25 27 26 28 28 26 26 27 24 22 20 18 16 15 14 13 13 14 13 12 12 12 12 11 10 10 10 9 9 9 8 8 8 8 9 12 12 12 12 12 15 16 16 16 17 16 18 19 20 23 22 21 22 19 20 22 21 20 21 22 24 22 22 24 23 20 20 21 20 20 19 18 18 18 18 17 17 15 13 12 13
15 13 10 10 12 12 12 14 17 21 22 23 20 28 24 25 27 27 28 27 28 25 27 26 25 26 23 21 20 20 19 18 14 14 14 14 12 11 11 11 10 11 10 9 8 7 7 8 8 9 9 10 12 14 14 15 15 15 17 17 18 21 20 19 18 19 19 17 17 18 20 21 23 22 21 23 23 22 23 23 19 20 21 21 20 20 20 18 20 20 17 18 17 16 15 15 14
20 12 10 11 14 14 14 17 19 18 16 14 18 27 28 24 28 25 27 27 31 28 28 29 29 26 26 23 22 19 20 18 18 17 16 14 13 11 11 11 10 10 10 9 9 8 8 8 7 8 10 10 11 11 15 16 16 17 17 17 17 18 20 20 19 18 17 17 19 19 19 22 23 24 22 23 22 22 21 19 19 20 22 20 21 23 22 20 19 17 17 16 16 15 15 15 14
16 9 10 14 14 15 15 17 21 16 15 21 21 18 29 29 18 22 23 26 31 32 29 30 27 26 25 24 24 20 18 18 17 19 18 16 14 12 10 10 10 10 10 10 9 8 8 7 8 8 9 10 9 10 11 14 16 16 17 16 17 17 17 19 18 18 19 20 20 19 20 23 23 25 27 22 23 21 22 21 19 19 20 23 23 24 21 21 20 17 18 17 16 15 15 13 14
10 9 14 13 14 14 16 21 21 18 23 24 19 21 31 28 20 21 24 27 29 29 26 26 27 25 25 22 20 20 19 18 18 17 18 16 14 13 10 9 10 10 10 9 9 8 8 8 8 8 8 10 10 10 11 12 14 16 16 15 16 16 17 17 18 19 18 17 19 19 22 25 24 24 25 23 23 24 23 22 22 22 20 22 25 25 23 21 20 20 19 16 16 16 14 14 14
8 11 17 17 18 20 16 20 21 16 25 28 19 19 24 28 22 24 27 31 30 24 23 24 25 21 21 21 21 23 22 21 20 19 17 17 15 13 12 12 11 11 11 9 9 9 8 9 9 9 9 9 9 12 12 11 13 13 16 14 15 16 15 16 17 18 18 17 21 21 23 24 24 26 25 23 24 23 22 20 22 22 21 21 23 24 27 22 19 19 18 16 17 17 16 14 14
14 20 19 19 21 17 21 22 18 27 29 20 26 19 17 29 19 22 22 17 26 28 25 26 26 27 25 23 24 23 22 21 21 21 20 18 17 15 14 13 12 12 11 10 9 9 9 9 9 9 9 9 9 10 12 11 12 12 13 14 15 15 15 16 18 18 18 19 19 20 21 22 25 25 23 22 23 23 22 21 22 21 23 23 25 23 28 25 20 18 18 18 18 17 16 16 15
20 20 20 22 21 16 22 23 25 27 30 15 12 14 22 32 25 13 19 20 16 20 22 25 27 29 25 23 23 23 23 22 23 21 20 19 18 18 16 14 13 12 11 10 10 9 10 9 9 9 9 9 9 9 10 11 11 11 12 13 15 16 17 17 17 18 18 19 20 21 21 24 25 23 23 24 24 23 24 24 25 25 23 23 22 27 29 28 19 18 18 18 19 18 18 17 17
21 22 21 22 23 22 20 22 23 23 19 17 16 12 31 21 19 19 17 21 16 12 15 15 17 22 26 26 24 25 25 24 23 22 21 20 18 18 16 15 14 13 12 11 10 10 10 9 8 9 8 8 8 9 10 10 11 11 13 14 13 15 17 17 17 18 18 20 20 22 23 23 21 22 22 24 26 26 26 24 24 24 24 24 23 26 29 21 20 21 20 20 19 19 18 17 17
21 15 20 22 23 26 20 21 23 22 23 16 13 20 30 21 13 15 11 12 12 11 14 14 13 15 18 23 26 25 25 24 25 23 22 21 19 16 16 15 14 13 12 11 10 9 9 8 8 8 8 8 8 9 9 10 10 10 10 12 13 14 15 17 18 18 19 20 20 22 23 23 22 22 24 22 22 24 25 25 24 25 25 24 24 24 24 21 21 22 22 21 20 19 18 18 18
15 14 17 22 23 21 30 13 18 17 17 17 22 24 10 16 16 13 10 10 11 11 12 13 16 16 17 21 26 27 29 30 27 23 22 20 18 16 16 15 14 13 11 11 11 10 8 8 7 7 8 8 9 9 10 10 10 11 11 11 12 13 15 16 17 17 17 18 19 21 23 22 22 22 21 21 21 22 23 26 27 26 26 25 23 23 23 23 23 23 23 22 21 20 19 20 18
14 17 22 17 16 17 17 10 13 9 22 32 22 23 24 17 22 21 16 12 13 11 12 14 15 17 19 21 23 24 27 29 29 25 23 21 18 17 16 15 14 12 12 11 10 9 8 7 7 8 8 8 9 9 10 9 10 11 11 12 12 13 14 16 17 16 17 17 18 19 21 21 22 21 23 22 21 22 23 26 26 27 26 25 24 25 24 24 25 24 24 23 23 21 22 21 19
15 19 13 14 13 16 17 20 12 16 26 23 18 23 23 22 26 14 15 15 16 17 15 15 14 16 21 24 24 25 26 26 25 23 21 21 19 19 17 14 13 13 11 10 9 9 8 7 7 9 9 10 10 10 10 9 10 10 11 11 12 13 15 16 17 17 16 17 18 18 18 20 22 24 24 23 22 22 23 23 27 27 26 23 20 24 24 25 27 26 24 24 23 22 22 21 19
18 15 14 20 14 18 19 19 21 21 23 26 22 21 24 22 20 18 16 19 17 15 15 15 18 20 22 21 21 22 23 26 27 24 23 21 20 19 17 15 14 14 11 9 10 10 9 8 9 9 10 10 10 11 10 10 10 10 10 12 12 12 13 14 14 16 17 17 18 18 19 22 20 20 23 22 24 23 24 24 24 27 28 24 22 23 26 26 27 26 25 24 23 22 22 21 20
11 13 18 12 17 17 14 15 19 20 20 18 21 18 23 18 20 13 15 17 15 12 14 19 22 22 21 19 20 23 24 25 26 25 21 21 20 18 17 15 16 15 12 11 10 10 9 9 10 10 10 10 11 12 11 12 10 11 11 12 11 12 13 12 11 13 16 17 17 17 18 19 20 19 21 23 25 26 25 25 25 25 24 26 25 24 27 27 27 27 27 26 24 23 24 23 22
17 18 19 15 19 14 20 19 23 22 23 22 25 27 20 15 16 12 16 16 16 17 20 18 19 20 19 18 19 21 22 23 24 25 22 21 20 17 16 15 15 12 11 12 12 12 11 11 10 10 10 11 12 11 11 11 11 11 12 12 12 12 12 14 12 11 12 14 16 16 17 16 18 20 20 22 24 25 25 26 26 27 26 28 31 26 25 28 28 28 28 26 24 24 25 24 23
16 14 15 15 15 15 17 21 17 22 25 24 22 30 21 19 11 12 16 13 14 15 16 17 16 16 16 17 17 20 21 21 23 23 22 21 19 17 17 18 13 12 14 14 14 13 12 12 11 10 12 13 11 11 10 11 11 11 12 13 13 12 13 13 13 12 13 14 16 16 15 16 17 18 19 21 22 23 25 26 27 27 26 27 29 32 28 28 30 31 28 27 25 25 24 24 23
Wind_Speed
6 4 1 4 4 4 5 6 8 6 6 10 9 6 4 3 4 7 5 4 8 2 5 2 3 8 6 4 3 4 7 8 8 4 2 3 9 13 11 14 17 15 16 14 14 15 15 14 16 17 17 18 18 17 17 17 17 17 16 16 16 15 15 16 16 15 15 14 14 13 13 13 13 13 13 14 16 16 16 14 14 15 16 17 16 17 14 15 16 17 18 17 16 15 15 15 14
2 1 3 5 5 6 7 5 7 7 6 8 9 6 2 4 4 7 8 3 2 3 2 3 5 7 5 1 3 5 9 8 5 7 7 6 12 10 11 16 18 19 15 14 15 15 15 16 15 16 17 19 19 18 18 18 17 16 15 15 15 15 14 14 15 15 15 14 13 13 13 13 13 12 13 14 15 16 15 15 15 14 15 13 15 15 17 15 16 17 18 16 15 14 14 15 14
1 4 5 5 5 7 1 6 10 9 8 9 6 8 4 8 8 5 2 0 2 3 3 4 3 4 3 6 4 6 6 7 8 6 7 11 12 10 14 16 16 16 17 14 14 14 13 15 15 16 18 18 18 18 19 18 17 16 14 15 15 14 13 14 14 15 15 15 14 13 13 13 13 13 13 13 13 14 15 15 15 15 15 14 15 16 17 16 16 16 16 14 15 14 15 14 14
3 4 5 6 7 6 8 7 9 8 7 8 5 5 6 6 7 4 3 1 6 4 5 6 4 2 5 2 8 5 6 3 7 6 7 8 5 12 14 14 16 14 14 13 13 13 13 16 16 16 17 18 19 19 18 18 17 16 15 15 15 15 15 14 14 15 15 15 14 13 12 12 12 13 13 13 13 13 13 14 15 15 15 14 14 15 15 15 15 15 15 14 14 14 14 14 13
4 5 5 7 6 8 9 8 8 7 10 6 5 5 3 6 2 3 3 2 5 7 7 4 3 4 7 7 1 2 3 4 7 5 7 6 10 12 11 14 12 12 14 14 14 13 15 20 17 16 16 19 19 18 18 19 17 17 16 16 16 15 15 15 14 15 15 15 13 13 13 12 12 12 12 12 12 12 12 12 13 13 14 14 13 14 14 13 14 14 14 14 14 14 13 13 13
5 5 4 5 7 6 5 8 6 9 9 5 4 3 5 2 4 3 3 5 7 8 7 9 5 5 3 4 4 5 5 1 4 6 7 6 13 16 12 12 10 10 13 13 13 12 16 18 16 16 16 17 18 18 17 17 17 17 17 16 16 16 15 15 15 15 15 15 14 13 12 12 12 12 12 12 12 11 12 12 11 12 13 13 14 13 12 12 12 13 14 13 14 13 13 13 12
6 6 6 7 4 5 9 9 9 8 6 4 6 1 4 6 3 3 4 5 8 9 6 6 1 9 5 4 9 8 5 5 3 6 6 12 14 15 15 14 11 11 13 13 12 14 19 18 15 15 15 16 17 17 18 17 17 18 17 16 15 15 15 15 15 15 15 15 14 13 13 12 12 12 12 11 11 11 11 11 12 11 12 13 14 12 12 12 12 13 13 13 13 13 13 12 12
5 8 7 9 7 7 10 8 8 4 4 6 5 7 4 5 3 6 3 8 9 10 10 4 2 4 4 1 3 5 9 8 7 9 11 12 13 15 17 12 12 11 12 12 13 14 19 17 15 14 14 15 18 17 17 17 17 17 17 16 15 15 15 15 15 16 15 15 14 13 13 13 12 12 11 11 11 11 12 11 11 11 14 14 13 12 11 11 12 13 13 13 13 13 13 12 11
6 8 1 7 9 6 9 7 8 3 3 4 6 5 7 6 5 4 7 8 7 9 8 8 4 7 7 1 4 7 7 8 8 11 10 13 11 13 12 15 13 12 12 12 14 15 16 17 14 13 14 16 17 17 16 16 17 16 16 15 15 14 15 15 15 15 15 15 14 14 13 13 13 12 11 11 10 11 11 11 12 15 15 14 12 11 11 11 12 13 13 13 13 12 12 12 11
6 7 8 8 7 8 8 8 7 6 8 6 6 7 8 7 7 7 8 10 7 5 3 4 4 9 5 2 8 6 6 7 9 10 11 13 12 11 13 15 14 15 12 12 14 14 13 19 15 14 13 14 15 14 15 15 15 15 14 14 14 14 14 15 15 15 15 14 14 14 14 13 13 12 11 10 10 10 11 11 14 15 14 12 11 11 11 11 12 12 13 13 12 12 12 11 11
7 8 5 9 8 7 8 7 8 5 6 4 5 4 5 6 7 8 9 10 10 12 9 8 4 3 4 1 6 4 5 7 10 10 10 11 10 11 5 13 12 10 12 13 11 14 15 16 18 15 12 13 15 14 13 13 13 13 13 13 13 14 14 14 15 14 14 14 14 15 15 14 13 12 12 11 10 11 11 11 12 13 12 11 10 11 11 12 12 13 13 12 12 12 11 11 11
8 8 7 9 8 7 6 6 5 4 4 5 6 5 3 6 7 9 9 9 9 6 12 5 7 5 9 3 4 6 5 7 8 9 9 7 5 10 10 10 10 10 10 10 8 7 14 15 14 15 13 14 14 12 13 13 13 12 12 13 13 14 14 14 14 14 13 13 14 15 15 14 13 13 13 12 11 10 11 11 11 12 11 10 10 10 12 13 13 12 12 12 11 11 11 10 10
8 8 9 8 6 6 0 4 4 2 5 8 4 6 0 5 9 9 7 8 8 8 5 3 14 9 3 5 7 9 8 8 9 11 11 6 6 7 12 12 10 10 9 11 10 6 14 14 13 14 14 16 14 14 13 14 14 13 12 13 13 13 14 14 14 14 14 14 14 15 14 14 14 13 13 12 11 11 11 11 12 12 10 9 9 10 12 13 13 12 12 12 11 11 10 10 10
8 6 6 7 1 5 6 5 4 6 6 6 2 1 5 7 8 9 9 10 8 9 9 12 7 12 7 5 8 7 8 8 12 13 11 10 7 10 12 13 11 10 7 9 13 11 12 13 12 13 14 12 12 13 14 14 14 14 14 13 13 13 14 14 14 14 14 14 14 14 14 14 13 13 13 12 12 11 11 12 12 11 10 10 10 11 12 12 12 12 11 12 11 10 10 10 10
7 4 6 5 5 7 5 6 7 6 4 3 5 4 5 6 2 8 8 9 7 7 8 7 2 8 5 5 5 5 9 10 11 12 12 10 11 10 10 12 11 8 7 9 10 12 12 12 13 13 12 13 13 8 9 14 15 14 14 14 13 13 13 14 14 14 14 14 14 14 14 14 13 13 13 12 12 11 11 12 11 10 10 11 11 12 12 12 12 12 12 11 11 10 10 10 10
4 6 6 5 6 8 8 5 2 4 4 1 5 2 5 2 5 7 8 4 8 8 6 6 1 2 5 8 10 12 11 11 11 11 11 11 12 12 7 9 10 9 8 8 9 10 11 12 12 11 11 13 11 11 11 12 15 15 15 14 14 14 14 13 14 14 14 14 13 13 13 13 13 11 13 11 12 12 12 11 12 12 11 11 12 13 12 12 12 12 11 11 11 10 11 11 10
3 7 6 6 6 8 8 5 6 3 5 3 3 3 6 4 3 6 2 3 9 8 8 6 5 4 13 13 14 15 12 12 12 12 12 9 9 11 7 5 8 8 8 9 9 9 10 11 13 10 10 13 12 10 10 12 13 16 15 15 15 14 14 14 13 14 14 13 12 12 12 8 9 9 9 9 11 10 13 13 12 12 12 13 13 13 12 12 12 12 11 11 11 11 10 11 11
6 7 7 7 5 7 7 1 2 4 3 5 3 1 4 6 8 7 8 8 9 9 10 8 10 12 14 14 13 13 14 14 12 12 10 9 7 8 9 9 10 10 10 9 9 9 10 10 11 12 10 11 13 9 9 10 12 13 13 13 12 13 13 13 12 10 11 10 11 9 6 6 5 7 8 9 8 11 12 13 13 13 13 14 13 13 12 11 11 11 11 10 11 11 14 7 9
8 6 6 7 6 5 3 4 2 4 6 5 3 3 4 5 8 9 11 12 10 12 9 10 12 12 14 14 14 13 13 12 11 10 10 9 8 11 9 9 8 9 8 8 8 9 8 9 10 10 11 10 11 10 8 9 12 10 12 11 10 12 12 12 9 10 9 10 9 6 5 4 5 6 5 6 8 11 13 13 14 13 13 13 12 12 11 11 10 10 10 10 10 12 8 5 6
5 5 7 4 5 7 1 1 4 6 6 4 3 3 2 7 4 8 9 11 13 12 10 6 8 11 13 14 13 12 11 11 10 9 9 9 8 7 7 9 8 8 8 7 8 8 7 8 10 10 10 10 9 7 7 8 8 9 9 9 9 8 9 8 9 8 8 8 7 6 5 5 6 6 11 13 12 10 11 13 14 13 14 13 13 10 10 9 10 9 8 10 9 6 3 3 4
6 7 6 4 6 5 5 2 4 7 6 5 3 2 5 4 4 7 10 11 12 4 5 10 12 11 15 15 13 11 11 12 11 11 9 9 7 5 6 5 6 7 7 7 7 7 7 7 8 9 9 9 8 7 7 7 7 7 7 7 8 7 7 7 6 6 6 7 7 5 6 5 6 6 7 6 7 8 10 10 10 9 9 10 11 8 7 8 8 7 7 8 3 4 4 4 4
3 8 3 4 6 3 6 2 4 8 5 5 2 3 5 5 5 4 4 9 7 8 6 11 14 14 15 16 12 12 13 12 12 11 10 9 7 7 5 4 4 5 5 6 7 6 6 6 7 8 8 8 8 7 7 7 7 6 7 7 7 7 7 7 6 6 6 6 5 5 5 5 5 5 5 4 6 7 8 9 8 8 8 8 7 6 6 6 5 5 5 4 4 5 5 4 4
6 6 3 3 2 3 5 0 5 7 6 5 3 5 3 3 9 9 3 4 2 4 8 11 14 15 15 14 13 13 12 12 12 11 10 9 7 6 4 3 4 5 5 4 6 6 6 6 6 8 7 7 8 7 6 7 6 5 6 6 6 6 6 6 6 6 6 6 5 5 5 5 4 5 5 5 4 5 7 7 6 7 7 6 5 5 5 5 4 5 4 4 4 5 6 5 4
8 4 7 6 4 6 1 4 5 7 8 5 4 1 4 7 6 6 9 6 4 7 10 13 16 16 15 14 12 13 12 12 12 11 10 9 7 5 5 6 4 2 4 5 5 6 6 7 7 8 7 7 8 7 7 6 6 6 6 6 5 5 5 6 6 6 6 6 6 5 4 4 4 4 5 5 4 4 5 5 6 6 6 6 5 5 5 4 5 4 4 5 5 5 5 5 5
8 2 7 3 4 5 4 4 5 6 5 2 2 3 5 3 7 6 9 8 8 10 12 15 16 15 13 13 13 13 13 13 12 11 9 7 6 5 4 4 5 3 4 5 4 5 6 7 7 8 8 8 8 7 7 6 6 6 6 5 5 5 5 5 5 6 6 6 6 6 4 3 4 4 5 5 5 4 4 5 5 6 6 6 5 4 4 4 4 4 4 4 4 4 4 4 4
7 4 3 4 6 4 3 5 3 3 2 2 3 7 6 8 11 11 7 7 9 11 12 15 16 15 13 12 12 12 12 12 11 10 9 7 6 5 4 3 4 5 6 6 4 4 4 5 7 7 8 8 7 7 6 6 6 5 5 4 4 5 3 3 4 6 5 6 5 5 5 3 3 4 4 4 5 4 4 4 4 5 4 5 5 4 4 4 4 4 3 4 4 4 3 4 3
4 5 5 5 5 4 1 4 2 1 2 1 3 7 6 6 5 5 4 7 10 11 13 14 15 15 13 11 11 10 10 10 9 7 7 6 6 5 4 4 4 5 6 6 6 5 5 5 6 7 7 7 7 7 6 6 6 6 5 4 4 5 5 4 5 4 5 5 5 5 5 4 3 3 4 4 4 4 4 4 4 5 4 5 4 4 3 3 2 2 2 2 3 3 3 4 2
2 4 4 6 6 6 5 3 2 3 5 2 5 3 1 3 1 7 6 7 10 13 13 13 13 14 12 12 10 9 8 8 7 6 7 5 5 4 5 6 5 5 6 7 6 6 6 7 6 7 7 7 6 6 6 6 6 6 6 5 6 6 5 5 5 5 5 5 6 6 5 4 4 3 3 5 5 4 5 5 4 5 5 5 4 4 4 3 3 3 3 3 2 1 2 2 3
2 4 7 8 7 8 8 5 3 5 4 3 4 4 6 4 5 6 6 6 10 11 12 12 12 12 12 11 9 7 7 6 5 4 5 2 2 1 4 3 3 4 3 4 6 6 6 6 6 6 6 6 6 6 5 5 6 5 5 6 5 6 6 6 5 5 4 5 5 6 5 5 4 4 4 5 5 5 5 4 4 4 4 5 4 4 4 3 2 2 3 1 3 3 1 3 1
4 6 7 7 8 9 10 5 4 6 4 1 4 8 8 7 9 7 6 8 11 11 11 11 10 10 10 9 8 8 7 6 4 4 3 2 1 2 2 2 2 3 2 3 5 6 5 5 5 5 5 5 5 5 4 5 5 4 5 5 5 6 6 6 5 4 4 5 5 6 6 5 5 4 4 5 5 5 5 5 5 4 4 3 3 3 4 4 2 1 1 2 3 3 4 3 2
7 6 6 7 8 8 12 8 7 7 3 3 6 8 8 9 7 7 7 9 11 11 9 10 10 10 9 8 7 7 7 6 6 6 5 4 2 2 2 2 1 2 1 2 4 4 5 5 4 5 5 6 5 5 5 4 4 4 5 5 5 5 5 5 4 4 4 4 5 5 6 6 6 5 5 4 5 4 5 5 5 5 5 5 4 4 3 3 2 2 2 3 5 2 3 3 2
4 8 8 5 7 8 11 8 8 8 7 6 6 9 8 12 7 7 7 8 9 12 11 10 9 9 8 8 8 7 7 7 7 7 6 5 4 3 3 4 2 2 1 1 1 3 5 5 5 6 6 6 4 5 4 4 3 4 4 4 4 5 5 5 4 3 3 3 3 4 6 7 7 6 6 5 4 5 5 5 5 5 6 6 5 5 4 3 3 2 2 1 3 6 4 4 3
5 8 7 8 9 5 7 12 7 6 5 8 11 8 7 9 7 8 7 9 9 9 9 9 9 9 8 8 7 6 7 6 6 6 5 4 5 3 4 4 3 2 2 1 1 1 2 3 4 5 6 6 6 5 4 4 4 5 5 5 5 6 6 5 4 3 1 4 3 4 6 6 8 7 7 6 5 5 5 6 6 6 5 6 6 5 5 4 3 4 2 2 2 4 3 4 3
7 6 3 5 9 5 5 12 7 6 8 9 11 11 6 6 10 9 8 9 10 8 9 9 8 7 7 7 6 6 5 6 6 5 4 5 5 5 4 4 3 3 3 2 3 2 3 2 1 2 3 4 5 5 5 5 6 7 6 6 6 5 6 5 4 5 5 4 4 5 6 7 7 8 8 8 6 6 6 6 6 7 7 6 6 6 5 5 4 3 3 3 2 4 1 2 2
6 7 5 5 7 4 5 4 9 8 8 11 10 13 10 9 9 10 9 10 11 10 8 8 7 7 6 5 6 6 6 6 6 4 4 5 6 5 4 4 4 4 3 4 3 3 1 2 1 1 2 1 2 3 4 6 5 5 4 5 5 5 5 5 4 5 5 6 7 7 6 7 8 9 9 9 7 7 7 6 6 7 7 7 7 7 6 6 5 4 4 4 2 4 2 1 1
1 4 5 4 6 10 10 5 5 5 8 12 12 11 11 10 11 10 10 11 11 10 8 7 6 6 6 6 6 5 6 5 4 3 3 4 5 6 5 4 4 3 2 2 1 1 1 0 3 3 1 0 1 3 3 3 4 5 5 5 5 5 5 5 6 6 6 7 7 7 8 7 8 8 9 9 8 7 7 7 7 7 7 7 7 8 7 7 6 6 5 4 2 3 4 3 3
2 4 4 5 6 3 2 1 2 2 8 12 13 14 11 11 12 12 12 12 11 11 11 10 8 8 8 8 7 5 5 5 4 4 4 5 5 3 3 3 4 4 3 4 3 2 3 2 1 2 1 2 2 3 3 4 5 5 5 7 7 7 7 7 6 6 6 6 7 7 8 7 8 8 9 9 8 8 8 7 7 7 7 7 7 7 8 7 6 6 5 3 4 3 4 4 3
5 5 5 6 6 7 6 1 1 4 9 10 9 10 9 11 11 12 12 14 14 14 13 12 12 9 9 9 8 8 6 5 6 5 5 4 5 4 3 3 3 2 2 1 0 1 2 1 1 1 2 2 3 4 4 4 4 5 6 6 5 6 5 5 6 6 6 6 7 7 6 6 8 8 8 9 8 9 9 8 8 8 8 7 7 7 8 7 6 6 5 5 4 4 4 4 2
5 7 6 6 6 3 2 1 2 4 9 9 10 14 10 9 10 11 12 14 12 12 12 12 12 10 9 8 8 7 7 7 6 5 5 5 5 4 3 3 3 2 3 3 3 2 2 2 1 1 1 3 3 4 5 4 4 5 6 4 5 5 5 5 5 4 3 5 6 7 7 8 8 8 8 4 4 8 9 9 8 7 8 8 7 8 8 8 7 7 6 5 5 5 5 3 4
5 7 7 9 2 4 7 5 3 5 8 6 9 13 7 7 9 11 11 13 10 10 12 12 11 11 10 8 7 7 8 7 7 5 6 5 5 4 3 3 3 3 2 3 2 2 1 1 2 1 2 3 3 5 5 5 5 6 7 6 5 6 5 5 6 7 7 9 9 8 8 8 9 8 8 7 7 7 10 9 8 8 8 8 7 7 8 8 8 7 7 6 6 5 6 5 5
4 7 7 7 6 4 9 3 2 5 6 6 9 10 7 8 10 10 10 10 10 13 12 12 11 10 8 6 5 6 7 6 6 6 6 5 5 5 4 4 3 3 3 3 3 2 1 2 1 1 0 2 4 3 6 6 6 7 6 6 6 7 7 7 7 8 9 9 8 8 10 10 10 10 9 10 10 8 9 10 10 8 8 8 8 8 8 9 9 8 8 7 8 6 5 4 5
5 1 5 5 3 6 2 3 6 7 7 9 11 10 11 11 14 12 10 10 12 11 12 13 13 12 10 9 8 7 6 6 6 7 6 5 5 5 5 4 4 3 3 3 2 2 1 2 2 1 1 2 2 5 6 5 7 8 6 6 6 7 7 7 9 9 8 8 8 9 10 10 11 10 10 11 12 10 8 7 11 9 9 8 7 7 8 8 9 9 9 8 8 8 5 5 5
6 4 2 3 5 5 5 6 7 8 8 9 10 12 7 11 14 13 10 12 13 12 14 12 12 12 12 10 10 9 9 8 7 6 7 7 5 5 5 4 4 4 4 3 2 2 2 1 1 1 2 2 3 3 4 5 7 7 9 9 8 8 8 7 7 7 7 6 6 7 5 8 11 11 11 12 12 9 8 12 8 3 3 9 8 8 8 9 9 9 8 9 7 7 7 6 5
7 5 3 4 7 6 7 8 8 7 7 3 7 9 10 8 12 13 16 15 14 13 14 14 13 13 13 11 10 10 10 9 8 8 8 7 6 4 5 4 3 4 4 3 3 2 2 1 1 1 1 2 3 3 6 6 7 8 9 9 8 9 8 8 8 8 7 5 6 7 5 6 9 12 11 12 12 10 9 8 7 6 5 5 8 9 9 9 8 8 8 8 7 6 7 6 5
4 2 4 7 6 7 7 7 8 6 5 7 8 9 10 11 6 12 14 14 19 20 16 18 16 13 12 11 10 11 9 9 9 9 9 8 7 5 4 4 3 3 3 3 3 2 2 2 1 0 1 2 3 3 5 7 7 7 7 7 8 8 8 8 8 8 6 8 10 8 7 6 7 10 14 11 11 11 10 9 8 7 6 6 3 10 11 9 10 8 8 7 7 6 6 6 5
3 1 3 4 6 6 8 8 9 7 9 10 8 9 11 11 7 8 11 12 13 13 14 13 13 13 12 11 11 11 10 9 9 9 9 8 7 6 4 3 4 3 3 3 3 2 2 2 2 1 2 2 2 3 5 6 7 8 8 7 7 7 7 7 8 8 8 7 9 9 8 6 7 7 12 13 11 11 12 11 10 9 8 6 4 7 12 10 9 9 8 8 7 7 6 6 6
1 4 8 7 8 8 6 8 8 5 6 12 11 9 11 8 9 10 10 12 13 10 10 10 12 12 12 11 12 12 11 10 9 10 9 9 8 6 6 5 4 4 3 3 3 3 2 2 2 2 2 1 2 4 4 5 6 6 8 8 8 8 8 7 8 8 8 7 8 10 7 6 6 8 11 11 11 11 11 10 9 9 8 6 5 5 11 11 9 8 8 8 8 8 7 7 7
6 7 7 7 8 7 8 8 7 9 10 9 15 10 8 11 6 8 10 5 11 13 14 15 15 15 13 13 12 13 12 11 11 11 10 10 9 7 7 6 5 5 4 4 3 3 3 2 1 1 2 2 2 4 5 4 5 5 6 7 8 8 8 7 9 9 9 10 8 7 7 6 7 10 11 9 9 10 9 9 10 9 8 7 7 6 10 13 9 8 7 7 7 8 8 7 7
8 8 8 9 7 4 6 8 9 9 11 2 0 5 9 13 11 4 2 5 8 10 10 12 15 15 14 13 14 12 12 12 12 11 10 10 9 9 8 7 6 6 4 4 4 3 3 2 1 1 2 2 2 3 4 5 5 5 5 7 7 7 9 9 9 9 9 9 9 10 10 11 12 11 9 9 9 10 9 9 10 10 8 8 10 11 12 16 9 8 8 8 8 9 8 8 8
9 8 8 8 7 7 7 7 7 8 8 6 5 3 12 9 7 9 7 8 5 3 6 6 7 11 14 13 13 13 13 13 12 11 11 10 9 9 8 8 7 6 5 4 4 3 2 1 1 1 1 0 2 3 4 4 5 5 6 6 6 7 8 8 8 8 8 8 8 8 9 9 8 9 9 9 9 10 10 10 10 10 10 11 12 11 15 13 10 8 8 8 9 8 8 9 9
7 6 7 9 8 7 5 5 8 7 7 2 3 6 8 10 2 4 1 2 0 1 3 3 5 6 7 11 13 14 14 14 13 12 11 11 10 9 8 7 6 6 5 5 4 3 2 1 1 1 1 1 3 3 3 4 3 4 4 4 5 6 7 7 8 8 8 8 8 9 8 8 8 8 9 9 9 10 10 10 10 11 11 11 12 13 12 10 9 8 8 9 8 8 9 9 8
5 4 6 9 8 6 10 3 7 6 5 5 7 6 1 2 5 4 2 1 2 3 3 5 7 8 8 9 12 13 13 13 13 13 12 11 10 9 7 7 6 6 5 4 4 3 2 2 1 1 2 2 3 3 4 4 4 3 4 4 4 5 6 7 7 7 7 8 8 9 9 8 8 8 8 9 10 10 10 10 10 11 11 11 10 10 10 10 10 10 9 8 10 8 9 10 9
3 6 8 4 5 6 6 3 2 3 8 11 7 8 8 6 9 10 7 5 5 4 5 5 6 8 10 10 11 13 13 13 13 13 12 12 10 9 8 8 6 5 5 5 4 3 2 1 1 2 2 2 3 3 4 3 3 3 3 4 5 5 7 8 8 9 8 8 8 8 8 9 9 9 8 8 10 10 10 10 10 11 11 11 10 11 11 11 11 11 10 10 10 10 10 10 9
3 7 1 4 3 6 5 6 2 5 9 7 7 9 9 8 4 3 6 6 7 7 6 6 5 7 10 11 12 13 14 14 14 13 12 12 11 10 9 7 6 6 5 4 4 3 2 1 1 3 3 4 4 4 4 3 3 4 4 4 4 5 6 7 8 8 8 8 8 8 8 8 8 8 8 8 9 11 11 12 11 11 11 10 10 10 11 11 10 10 11 11 10 10 10 9 9
7 5 6 8 2 8 7 4 8 8 8 7 8 11 10 9 5 6 6 9 9 7 5 5 7 8 10 10 11 12 12 12 13 13 12 11 10 10 9 8 7 7 5 3 4 3 3 2 3 3 4 4 4 4 4 3 4 3 3 4 4 4 4 5 7 8 8 9 10 9 9 9 9 9 10 10 10 11 11 11 11 11 11 13 11 11 11 11 12 11 11 11 11 11 11 11 10
4 4 6 4 5 5 5 3 6 5 8 7 8 8 5 7 7 4 3 3 3 4 3 7 8 8 8 8 9 11 12 13 13 12 11 11 10 10 9 8 8 8 6 4 4 2 2 3 4 4 3 4 5 5 5 5 4 4 4 5 4 5 5 5 5 6 7 9 9 9 9 9 9 9 10 11 11 11 12 12 12 12 12 12 14 12 14 10 10 9 10 11 11 12 12 11 11
6 6 6 5 6 3 6 6 7 7 7 7 8 8 4 3 6 2 2 4 5 6 8 8 8 8 8 8 8 9 11 12 12 11 11 11 11 9 8 7 6 5 4 3 3 4 4 4 4 4 4 4 5 4 5 4 4 4 5 6 5 5 6 5 6 5 6 7 8 8 8 8 8 10 10 11 12 13 13 13 14 14 14 13 14 14 12 12 11 10 12 12 12 12 12 11 11
6 4 5 5 5 5 7 8 5 7 7 7 7 9 6 4 2 2 6 3 1 2 4 5 6 7 6 7 8 10 10 12 12 11 11 11 10 9 8 8 5 4 4 5 5 5 5 5 4 3 4 5 4 3 3 4 4 4 5 5 6 6 5 5 6 6 6 7 8 7 7 8 9 9 10 11 12 11 13 14 15 15 15 14 14 15 13 12 12 16 15 12 11 12 11 12 11
Wind_Direction
244 222 255 232 246 234 203 206 234 197 235 240 249 208 257 200 305 258 223 152 219 133 295 186 191 117 157 224 3 27 43 358 2 317 108 83 150 149 146 138 138 134 138 137 135 139 137 136 139 137 134 129 127 127 122 121 119 119 121 118 117 116 114 117 117 114 112 111 112 111 109 106 106 103 98 96 99 103 104 102 102 102 106 113 113 113 113 109 108 105 103 100 100 100 99 96 94
227 245 201 212 223 202 200 215 247 223 225 255 241 244 193 152 208 233 238 173 333 45 297 135 155 156 189 30 201 166 89 29 51 62 67 109 143 144 144 147 143 141 137 139 142 142 144 144 141 140 139 134 132 130 125 123 122 120 119 116 115 116 115 115 113 112 112 112 110 110 110 108 106 103 101 102 105 108 109 110 110 107 107 108 111 113 110 108 108 108 105 106 102 101 99 97 98
228 211 175 210 212 234 16 207 237 234 233 242 222 215 90 237 230 197 241 127 148 201 197 147 160 193 194 195 121 346 59 29 76 96 106 139 146 150 154 147 135 135 138 141 143 143 140 141 140 141 138 134 133 130 128 126 123 121 118 116 115 113 111 110 111 111 113 112 110 108 106 105 104 102 99 97 98 105 115 116 117 117 120 124 118 111 109 111 111 109 109 104 102 102 99 98 97
270 248 225 195 186 222 220 205 243 252 241 245 240 148 223 251 225 232 73 26 211 189 186 175 197 326 318 28 59 74 65 36 13 90 124 147 130 144 152 135 135 140 140 140 140 139 139 140 142 139 138 136 135 134 131 129 124 122 120 119 118 117 116 115 116 117 116 114 113 109 103 96 97 98 97 97 102 105 106 111 114 117 116 113 111 110 109 107 107 109 109 104 100 97 98 97 95
234 186 252 225 251 200 227 223 236 237 237 226 230 116 232 226 219 190 230 240 224 214 217 128 236 83 52 70 330 154 43 38 40 45 110 99 134 138 138 133 126 129 138 138 136 138 135 140 141 140 139 139 137 135 132 131 126 125 125 125 124 121 121 120 119 119 116 114 111 109 107 101 96 94 95 98 100 102 101 103 106 109 109 103 102 102 103 104 105 110 108 104 99 99 100 99 95
212 196 203 243 229 359 247 234 224 229 247 327 258 128 87 197 143 234 257 229 221 217 225 165 239 148 75 66 5 77 26 92 67 104 114 133 141 133 139 113 118 145 134 137 135 136 142 139 140 139 140 139 137 135 133 132 130 129 130 128 126 124 122 121 121 118 116 114 111 110 105 101 98 96 94 96 99 103 105 108 111 110 105 99 93 97 99 103 104 108 111 107 102 102 103 99 97
180 192 182 211 242 222 236 232 234 232 215 225 275 143 192 131 232 256 220 206 207 215 191 206 60 141 174 149 94 71 60 71 115 113 121 141 140 140 133 130 140 145 140 137 136 134 137 136 135 137 138 137 135 134 134 132 132 131 130 130 126 125 122 121 121 119 117 114 112 110 109 106 102 99 96 96 95 96 99 102 102 99 101 96 91 96 102 105 109 111 112 107 105 103 102 100 99
262 236 170 209 207 200 229 236 251 234 153 238 259 276 224 214 241 239 232 216 178 209 187 216 161 307 60 165 97 86 71 69 91 99 128 146 145 142 132 126 137 141 137 133 135 129 132 131 131 135 136 137 135 134 134 134 134 133 133 131 128 125 123 121 121 121 118 117 114 110 106 101 100 98 99 99 100 99 102 103 102 105 90 90 89 91 96 110 112 115 112 108 106 105 102 101 102
191 239 96 242 230 195 231 225 231 205 282 212 232 250 303 277 255 253 231 210 155 198 174 170 165 260 94 190 83 96 68 80 107 125 142 139 143 147 137 139 145 140 136 129 123 130 134 127 129 132 136 136 135 134 134 135 136 136 134 130 128 124 122 121 121 120 118 117 114 109 105 100 95 96 98 99 97 101 105 105 105 92 90 87 89 91 98 111 116 117 114 111 109 106 103 103 104
188 237 179 234 234 217 223 213 226 205 228 217 233 203 207 212 231 230 220 193 168 104 289 205 171 89 199 135 130 82 79 109 127 134 142 142 153 155 141 141 146 135 129 123 126 131 130 125 126 132 134 135 132 133 136 137 138 136 134 130 126 124 121 122 121 121 120 118 115 108 103 99 99 100 100 100 103 105 111 110 104 90 89 91 86 90 100 116 120 115 115 112 110 107 107 106 106
203 200 296 220 220 230 222 207 210 158 209 189 213 222 230 234 236 202 211 182 164 159 196 169 150 86 144 85 62 86 114 129 132 139 140 141 156 137 104 118 121 118 113 116 114 126 131 131 125 131 130 137 131 134 135 137 136 135 132 128 125 124 122 122 123 121 121 119 113 108 103 104 104 104 103 104 107 109 112 111 111 101 93 94 92 94 105 117 118 114 112 112 109 109 109 108 107
210 203 186 226 219 228 201 231 168 185 178 181 214 197 187 227 213 207 188 196 168 140 167 184 118 184 163 192 128 120 117 127 123 128 118 102 110 116 122 79 55 92 106 104 114 152 128 131 135 131 135 136 130 131 136 135 132 131 128 127 126 123 124 123 123 121 120 117 112 109 108 109 109 108 107 107 107 109 114 115 112 105 99 97 99 105 111 117 118 115 114 111 111 111 111 110 106
241 189 200 232 216 224 185 243 165 213 198 188 179 133 190 233 210 195 187 216 160 204 114 192 112 164 187 164 112 126 122 109 120 113 109 135 157 107 75 100 141 129 133 124 123 151 137 136 135 143 141 136 133 136 133 135 133 132 130 128 126 125 125 125 123 123 120 117 114 113 113 112 111 110 108 109 111 111 112 114 112 108 102 102 108 114 115 117 118 117 116 113 113 112 112 109 107
243 198 210 215 127 239 201 196 158 192 188 104 167 184 229 229 213 204 198 198 177 196 108 103 184 172 167 144 140 137 126 133 130 132 135 145 139 106 123 125 116 98 100 126 142 153 135 137 141 135 140 139 136 138 136 137 137 136 133 130 129 128 128 129 127 125 123 121 119 117 116 115 112 111 110 109 113 113 114 114 110 106 110 110 113 118 119 117 120 118 116 116 115 113 110 110 107
240 201 226 235 208 221 194 212 181 191 145 139 94 243 192 216 241 218 222 200 71 79 96 83 52 245 115 187 104 127 137 138 138 136 133 139 121 113 109 110 112 126 161 144 141 141 143 141 138 143 147 142 141 141 150 145 143 139 136 134 133 132 132 132 131 128 127 125 124 122 120 120 116 113 113 112 112 113 112 115 110 114 113 112 114 118 120 119 119 119 116 116 116 113 109 106 107
245 200 233 210 206 212 153 227 165 210 99 187 68 185 213 131 211 216 217 299 122 109 173 127 71 23 53 57 112 122 137 135 131 130 128 125 112 111 111 112 127 144 152 146 151 144 147 143 141 143 149 144 148 153 151 152 147 144 141 140 139 137 139 137 135 133 130 130 128 129 128 127 126 116 118 114 112 120 133 117 117 115 110 111 116 120 121 121 122 119 118 120 117 113 111 107 108
228 246 205 217 201 214 141 211 180 193 50 68 98 180 215 143 166 208 92 175 135 124 91 62 100 55 73 96 106 122 132 126 131 130 126 126 125 123 125 135 130 137 148 153 152 151 150 147 146 142 151 147 144 147 155 153 149 149 147 145 145 144 144 145 143 140 138 134 138 138 149 138 122 126 128 117 133 123 117 121 122 118 117 116 121 122 124 125 122 122 125 122 123 122 118 116 112
197 215 213 204 187 194 147 335 43 25 302 37 76 176 219 178 176 178 187 174 130 135 120 106 90 77 94 111 120 128 132 131 131 135 133 128 129 124 132 141 149 149 153 153 155 153 152 153 149 146 150 153 146 156 160 154 155 162 155 153 154 152 152 151 156 151 147 141 145 156 146 133 129 116 112 121 114 128 132 127 124 122 119 121 121 123 121 122 126 127 129 131 127 139 151 134 123
208 216 221 203 186 109 90 50 6 326 25 351 70 162 243 139 169 159 180 158 154 140 135 133 104 101 111 114 124 132 133 130 137 137 136 134 139 141 142 142 147 146 150 153 152 153 153 151 146 147 151 154 151 155 150 153 158 162 157 158 155 160 157 164 157 155 153 150 155 151 140 131 119 119 114 106 119 128 129 131 128 126 122 122 125 123 125 124 128 136 133 134 153 168 189 113 121
228 243 199 208 151 113 181 350 352 342 343 350 32 125 229 128 206 165 191 161 168 162 141 163 124 128 123 121 126 129 127 120 129 131 129 126 126 125 130 136 144 149 152 155 149 150 154 150 147 147 155 153 157 152 148 158 157 160 155 160 157 162 165 164 157 162 155 154 148 148 134 122 115 101 100 111 122 136 135 133 132 127 123 123 127 128 128 127 127 125 131 152 181 197 119 121 105
144 242 214 158 144 164 138 334 4 354 353 342 28 133 139 143 137 179 167 174 158 141 128 157 150 145 131 125 122 116 122 125 124 121 122 127 109 120 128 131 142 148 149 150 147 146 150 151 149 146 157 154 155 147 154 159 156 161 157 160 160 163 166 160 158 158 150 152 148 154 138 139 131 130 140 145 141 142 144 144 148 150 142 137 159 132 143 147 172 142 152 195 137 118 88 80 80
131 226 341 64 145 231 101 18 22 342 329 309 325 181 88 122 113 97 144 172 153 149 141 155 145 135 134 129 124 125 125 126 124 122 118 119 121 116 123 121 119 135 144 158 142 138 140 146 154 149 158 161 154 160 161 151 162 160 161 159 162 162 162 157 157 156 148 156 152 145 139 143 145 136 138 133 138 149 152 156 163 152 153 148 168 146 137 142 136 138 129 127 120 94 97 84 91
209 192 241 224 191 268 99 342 16 324 333 347 31 65 126 130 101 99 115 100 45 74 118 128 123 126 120 118 123 126 124 119 114 114 120 125 130 134 97 113 142 150 151 130 135 144 143 152 160 159 156 167 160 169 151 162 169 159 159 162 167 161 163 160 159 153 149 148 152 145 160 156 152 140 137 135 138 160 164 165 157 153 158 157 167 143 136 135 119 103 105 104 99 101 96 107 105
266 191 190 198 214 234 244 327 338 318 316 352 22 225 149 147 112 97 118 114 93 102 120 119 113 112 114 118 123 123 121 117 113 114 118 122 127 134 123 124 124 113 143 144 152 151 161 167 165 166 163 174 170 166 157 168 164 165 154 158 178 150 163 165 160 156 149 154 152 162 174 162 157 152 148 145 149 165 167 163 156 160 159 154 161 144 149 137 118 114 105 101 94 87 100 104 100
214 232 174 174 242 250 273 322 307 311 300 317 260 183 93 26 107 107 77 90 104 113 117 113 114 118 118 120 120 117 116 112 111 114 114 123 129 137 180 140 146 143 144 168 155 163 166 171 167 167 171 182 171 168 165 166 169 164 161 167 160 161 174 169 162 154 166 154 158 160 184 165 169 165 160 155 151 155 160 161 168 166 165 149 161 156 141 132 125 117 113 115 101 104 96 90 95
226 237 152 205 229 239 303 297 300 303 271 305 232 104 100 98 110 69 74 105 118 124 119 122 120 124 129 125 124 121 118 116 115 121 126 132 133 146 167 198 181 168 174 176 182 196 178 179 179 176 183 183 174 174 166 166 168 158 157 157 144 172 176 169 172 168 166 159 158 167 163 175 179 174 167 165 155 147 160 164 179 166 169 145 168 162 144 147 132 128 137 117 108 94 96 92 105
189 222 221 222 211 250 251 317 11 291 266 288 245 129 118 142 241 106 84 115 131 138 131 129 126 125 125 127 125 126 128 131 128 123 122 132 146 159 175 212 211 204 192 192 193 200 190 192 188 186 195 191 178 182 170 165 167 168 162 168 161 190 174 178 196 183 165 167 159 166 164 173 179 176 179 176 159 164 167 176 177 164 170 162 174 162 160 149 132 119 91 76 81 95 94 114 121
209 260 235 231 238 240 246 244 272 213 169 244 277 131 136 174 78 88 121 131 144 140 136 132 127 124 130 128 123 116 114 117 122 133 134 154 171 174 184 214 213 212 208 203 211 197 193 191 193 194 198 194 193 187 173 167 177 182 174 178 186 165 174 202 201 190 165 171 157 168 169 170 185 159 197 191 173 179 182 184 171 173 169 166 184 154 169 152 160 132 106 113 80 68 107 96 106
241 235 222 207 209 221 204 203 160 237 130 214 259 171 199 172 105 112 114 156 146 143 135 135 131 127 127 134 131 126 121 125 128 131 124 106 76 183 210 210 222 215 217 224 210 206 197 197 202 198 203 196 198 197 184 180 183 191 179 182 181 170 186 202 205 201 176 161 164 169 169 174 185 170 182 213 191 186 191 194 189 182 181 173 173 174 149 155 155 144 158 150 158 128 161 120 142
203 208 240 174 201 212 172 149 158 204 81 256 230 207 186 130 108 124 155 160 149 146 139 139 133 129 129 131 129 122 120 117 98 88 82 94 154 172 213 163 220 217 208 212 214 214 185 208 189 197 206 200 211 203 199 197 186 193 189 188 179 184 193 199 203 199 188 167 169 169 170 176 198 177 184 194 208 197 196 203 202 194 198 183 169 182 178 175 180 186 122 157 55 245 150 134 150
207 141 228 212 184 197 157 187 154 195 108 243 231 240 192 139 110 129 158 165 160 147 158 142 131 126 128 123 123 111 98 82 88 89 86 83 96 103 130 127 202 252 211 207 217 228 206 194 210 198 196 204 187 227 207 207 194 203 189 197 187 196 191 206 200 193 195 185 178 172 177 178 203 193 196 194 203 205 203 205 210 204 197 189 193 193 209 177 187 206 186 176 160 251 158 139 154
171 179 193 207 223 150 148 169 183 205 153 211 228 241 224 155 134 148 162 165 179 159 164 143 127 124 124 122 115 112 105 105 101 90 87 86 74 100 117 125 125 157 223 169 193 221 222 198 204 215 195 206 197 209 217 222 205 208 204 206 193 195 204 207 192 205 206 203 206 182 186 183 197 196 206 200 202 209 206 210 211 215 196 196 203 188 209 193 187 209 173 285 155 212 165 153 184
187 241 166 188 214 161 165 180 182 247 140 191 224 238 221 139 142 151 163 179 177 163 155 135 125 127 127 115 117 108 110 110 95 89 97 93 78 85 103 116 139 131 108 150 147 202 262 218 201 225 220 211 205 205 213 217 215 210 212 205 205 197 205 198 186 175 203 239 219 221 195 195 196 195 204 209 211 214 213 210 206 214 203 205 199 199 202 206 192 187 195 236 332 315 196 158 153
191 216 201 206 202 178 212 128 193 183 220 197 206 248 258 115 154 157 165 188 181 172 165 145 139 132 110 115 127 123 126 125 104 93 82 79 85 83 87 99 95 86 69 36 25 338 306 304 279 238 229 223 216 211 207 216 219 219 206 206 210 212 213 207 193 189 202 239 251 233 212 203 202 199 202 205 212 217 219 214 206 198 205 210 209 206 208 203 187 207 201 187 220 241 211 146 171
191 179 221 164 238 261 278 184 129 210 200 244 202 230 218 161 163 173 172 189 180 178 169 167 143 118 125 146 144 144 140 132 109 81 73 81 66 59 71 82 78 62 45 58 38 2 309 323 327 347 326 303 230 218 222 220 226 234 218 214 209 220 224 211 214 212 204 209 223 238 235 218 210 207 204 207 210 213 217 221 219 200 204 204 208 210 206 207 191 187 205 185 188 261 305 169 268
278 229 224 253 205 198 226 224 85 233 215 223 224 223 211 177 175 175 185 183 185 168 166 165 144 137 156 167 155 166 146 116 87 95 92 54 42 52 60 64 74 64 58 114 115 117 96 225 320 316 274 29 258 211 211 261 232 230 214 213 213 209 217 213 207 217 224 215 213 221 229 228 221 211 210 207 210 216 217 217 216 212 207 207 208 213 210 203 192 188 194 214 192 219 226 242 205
333 250 263 236 256 244 87 282 60 246 250 234 223 227 218 190 180 179 182 178 176 168 170 171 169 173 177 176 170 161 147 136 135 127 109 88 75 55 51 72 87 103 66 63 58 51 18 18 306 243 354 301 254 221 209 200 221 220 231 224 217 208 213 208 204 210 225 233 233 229 228 223 229 221 215 210 210 213 222 216 215 216 210 213 212 216 213 213 190 197 195 187 214 212 226 210 242
259 255 240 224 203 247 94 349 278 223 236 224 218 232 217 193 177 181 178 182 179 176 173 177 177 182 185 178 163 158 151 150 157 139 121 109 85 77 80 74 59 70 62 327 284 104 99 76 298 268 186 244 257 253 229 217 215 232 227 227 232 232 232 231 226 216 219 241 233 245 250 238 228 225 219 215 212 217 215 214 215 216 213 210 214 217 211 204 195 194 192 190 207 226 214 221 232
216 253 227 262 224 247 122 169 196 210 222 237 197 221 206 184 184 183 183 189 180 180 178 179 182 182 188 178 159 156 162 154 146 133 120 102 97 91 91 85 84 74 90 67 49 23 24 271 240 231 191 209 220 241 258 241 221 219 229 223 232 241 250 261 264 260 254 253 248 230 234 243 241 228 217 203 269 238 226 224 217 213 212 211 206 212 211 199 198 194 192 209 189 199 223 185 212
241 216 237 232 264 280 212 142 185 196 218 236 196 216 176 183 197 190 190 195 160 208 183 180 185 187 191 183 164 167 158 155 147 127 111 107 103 102 90 90 76 76 67 77 44 49 65 76 9 296 234 250 232 206 222 240 238 225 232 237 232 239 246 254 263 260 245 239 242 243 233 229 232 233 217 184 197 223 251 251 224 215 209 212 210 209 206 205 197 196 195 201 212 203 206 194 199
220 286 279 267 253 236 308 92 155 170 198 266 199 214 178 195 193 192 189 187 182 184 183 179 187 198 191 177 166 172 158 153 137 126 119 119 117 104 98 94 98 88 79 60 51 39 36 14 21 2 170 242 255 251 234 224 218 220 226 229 232 244 247 249 256 252 242 242 247 250 245 235 229 227 223 200 220 212 230 235 240 217 214 210 211 210 208 211 206 197 195 199 205 217 212 190 191
235 235 334 333 305 277 221 165 195 204 196 209 209 220 219 195 205 195 176 189 191 180 188 188 189 190 186 189 183 172 166 153 139 132 125 115 112 126 128 130 119 119 99 81 67 62 15 24 0 347 276 224 224 232 243 240 230 226 213 216 217 223 239 235 234 238 237 235 231 236 248 242 232 226 220 215 213 199 207 222 243 239 218 213 214 215 215 211 213 205 191 203 204 210 234 209 198
257 193 323 301 284 263 237 225 244 241 249 174 218 244 219 179 205 185 191 203 194 188 197 194 192 185 185 191 179 175 173 154 147 140 144 137 135 137 133 123 119 110 95 98 111 95 107 36 21 329 322 292 243 226 225 228 241 240 230 228 227 226 228 233 235 239 245 241 242 252 263 281 265 236 226 223 218 194 207 217 216 214 279 270 221 218 214 214 209 211 193 198 206 200 210 224 219
261 67 268 268 253 247 250 260 255 283 47 54 217 234 259 202 200 199 178 202 195 202 198 195 208 196 189 188 177 174 171 160 156 158 152 140 141 143 127 128 132 109 120 134 115 117 85 91 278 303 303 292 281 241 223 223 229 229 232 228 230 235 235 245 235 241 237 236 241 247 242 236 243 262 244 233 221 202 207 217 214 196 185 243 270 222 217 209 217 209 202 201 200 211 203 222 219
318 54 264 261 277 275 268 265 268 266 278 225 204 212 239 247 185 187 186 200 204 200 199 202 201 196 194 189 181 173 174 161 164 159 156 153 151 152 147 144 121 142 149 141 129 96 105 92 26 137 267 278 275 253 248 237 240 243 242 234 225 230 235 240 243 244 236 237 240 235 227 228 240 246 257 240 234 219 202 213 215 191 186 212 222 266 225 211 213 213 195 201 202 206 213 218 235
91 294 244 240 245 242 258 254 244 232 232 246 224 193 240 238 170 179 190 220 216 212 200 202 202 197 190 187 184 177 173 166 168 158 157 155 154 156 157 144 165 155 156 144 134 123 103 96 94 37 42 298 293 280 266 254 239 240 240 237 232 238 229 233 241 240 237 224 236 235 224 221 222 226 245 245 231 229 225 214 208 196 193 192 195 259 271 222 212 210 201 204 205 211 211 219 227
250 239 240 233 235 244 233 250 274 261 248 247 263 201 241 254 206 193 192 212 214 205 204 207 207 196 194 192 189 180 177 173 170 164 159 156 156 160 167 182 169 172 174 167 134 122 117 96 42 46 46 353 318 297 279 267 265 245 240 234 235 237 240 235 237 234 239 235 236 237 227 231 235 230 232 234 230 228 224 224 216 205 207 177 177 215 271 242 210 211 204 205 211 215 215 216 219
235 235 249 255 253 242 251 250 229 248 247 232 232 233 227 253 234 223 183 215 230 211 211 209 206 200 197 193 189 186 179 176 174 169 164 162 160 170 180 182 182 171 174 161 150 132 126 107 98 54 73 26 328 314 293 273 259 250 248 243 234 232 236 232 230 234 232 232 228 241 230 230 240 241 234 231 230 225 225 222 221 214 194 174 185 199 239 242 218 209 204 206 213 218 224 224 222
233 240 241 248 250 213 234 225 223 235 256 199 174 212 221 236 255 314 126 176 198 211 226 223 215 213 202 193 188 185 180 179 177 173 168 168 173 174 188 176 178 179 168 167 145 133 130 120 122 28 55 41 345 290 293 294 274 262 243 239 238 234 235 230 239 239 235 234 225 226 236 232 229 227 225 227 228 224 224 221 215 215 206 186 194 199 226 240 219 211 210 208 216 221 221 224 225
226 232 238 239 245 243 244 239 247 254 223 159 201 165 255 282 256 234 198 192 229 213 226 240 246 234 219 202 191 184 183 182 178 175 170 171 175 178 181 177 179 178 176 168 146 136 130 106 94 39 73 141 285 279 275 268 269 256 249 236 243 244 242 245 242 236 235 236 234 233 232 234 235 231 227 229 229 224 223 225 224 220 216 201 201 195 227 223 216 215 211 214 217 222 225 223 226
238 245 244 249 252 270 261 245 248 242 262 159 154 232 259 242 129 110 155 45 61 224 251 248 243 241 229 210 200 192 185 181 177 176 174 172 174 175 177 183 180 182 175 162 157 145 133 107 84 12 306 279 268 280 278 281 278 275 269 257 247 240 243 242 242 243 242 238 238 241 242 238 239 238 235 231 231 231 229 224 223 225 222 216 205 210 219 220 212 215 224 218 219 224 224 225 226
242 260 263 252 257 153 241 333 314 319 305 241 183 234 292 238 135 147 162 177 214 224 234 233 226 221 221 214 209 204 195 188 179 175 173 171 171 175 179 185 188 180 173 168 160 152 144 107 39 346 324 312 293 288 292 297 301 302 297 277 255 255 255 253 248 245 244 246 245 243 247 244 237 237 236 235 231 231 229 228 224 225 226 222 220 215 213 218 217 214 219 225 226 222 229 226 229
138 220 226 266 5 281 279 228 268 331 263 255 260 243 235 234 202 203 198 206 224 210 228 222 224 213 206 206 204 204 201 193 186 175 173 170 170 178 185 186 179 178 185 176 162 143 132 135 238 279 275 270 279 294 293 291 295 292 294 294 290 280 269 260 257 251 245 244 248 248 247 247 244 237 234 231 235 231 230 230 229 226 224 223 219 220 216 217 219 218 218 221 227 228 230 231 230
265 233 117 79 22 323 281 271 186 230 250 256 241 253 263 266 273 121 189 236 224 231 233 221 222 212 208 210 207 201 198 193 189 175 170 171 174 179 184 184 177 180 186 168 150 137 146 202 253 268 256 277 281 281 282 282 287 292 293 283 282 275 267 271 272 267 261 254 248 248 249 249 249 250 243 237 231 230 226 224 228 228 224 220 218 221 220 218 222 226 220 220 224 227 229 230 230
268 316 38 262 212 226 208 258 260 258 255 272 250 252 258 253 249 174 210 236 246 228 214 237 231 219 218 218 213 206 197 189 190 180 171 170 172 178 181 179 179 183 185 166 146 174 180 196 226 242 263 275 278 278 280 276 282 292 296 295 299 293 279 265 258 259 259 254 250 248 245 250 256 251 247 244 240 236 235 228 223 228 226 224 220 219 218 214 214 223 221 219 219 222 226 226 226
235 262 242 226 281 258 246 216 278 277 274 273 269 267 260 240 249 259 287 310 276 291 254 251 258 243 228 221 211 204 194 193 194 182 170 171 176 181 179 180 187 180 175 162 172 220 214 227 225 234 245 264 275 272 276 280 283 286 296 298 298 305 302 297 283 259 250 249 250 251 251 248 247 249 251 249 247 244 240 237 232 228 224 223 221 218 218 206 216 215 225 224 215 217 223 225 226
185 218 222 185 237 13 296 287 257 263 281 278 290 273 271 330 62 77 308 290 309 304 291 282 269 259 237 222 206 203 197 194 195 183 176 175 176 179 176 183 200 169 156 174 192 207 224 230 232 236 244 249 253 263 270 272 276 280 294 302 306 310 308 310 307 288 266 258 249 244 248 250 250 248 247 247 246 243 241 237 234 230 224 219 222 218 215 209 208 211 221 224 216 215 222 224 224
283 268 246 249 239 221 230 252 216 257 258 265 271 276 281 89 165 326 294 308 317 336 309 297 286 270 244 219 203 196 196 199 199 192 184 176 174 176 180 189 198 170 182 197 199 212 216 218 228 242 242 258 266 261 262 267 273 282 291 302 307 309 309 317 314 302 287 277 269 261 249 244 242 247 248 250 250 248 241 236 233 229 224 223 224 220 214 212 209 215 214 223 217 216 221 222 220